This is the latest recevied weather packets stored in our database for station/object KY4LEX. If no packets are shown the sender has not sent any weather packets the latest 10 day(s).
| Time | Temp. | Humidity | Pressure | Rain* | Wind** | Luminosity | Snow |
|---|---|---|---|---|---|---|---|
| 1777908188 | 16.67° C | 66% | 1017.1 hPa | 0 mm | - | 369 W/m² | - |
| 1777907884 | 16.67° C | 69% | 1016.8 hPa | 0 mm | - | 250 W/m² | - |
| 1777907580 | 16.67° C | 67% | 1017.1 hPa | 0 mm | - | 322 W/m² | - |
| 1777907276 | 16.67° C | 66% | 1017 hPa | 0 mm | - | 347 W/m² | - |
| 1777906973 | 16.11° C | 69% | 1017.3 hPa | 0 mm | - | 364 W/m² | - |
| 1777906671 | 16.11° C | 70% | 1017.3 hPa | 0 mm | - | 414 W/m² | - |
| 1777906367 | 15.56° C | 73% | 1017.3 hPa | 0 mm | - | 427 W/m² | - |
| 1777906063 | 15° C | 71% | 1017.2 hPa | 0 mm | - | 220 W/m² | - |
| 1777905760 | 15.56° C | 71% | 1017.4 hPa | 0 mm | - | 440 W/m² | - |
| 1777905457 | 15° C | 74% | 1017.7 hPa | 0 mm | - | 286 W/m² | - |
| 1777905155 | 14.44° C | 78% | 1017.7 hPa | 0 mm | - | 181 W/m² | - |
| 1777904851 | 13.89° C | 78% | 1017.7 hPa | 0 mm | - | 246 W/m² | - |
| 1777904549 | 13.89° C | 79% | 1017.7 hPa | 0 mm | - | 209 W/m² | - |
| 1777903943 | 13.33° C | 84% | 1018 hPa | 0 mm | - | 254 W/m² | - |
| 1777903639 | 12.78° C | 84% | 1018.3 hPa | 0 mm | - | 214 W/m² | - |
| 1777903334 | 12.22° C | 85% | 1018.7 hPa | 0 mm | - | 185 W/m² | - |
| 1777903032 | 12.22° C | 87% | 1018.8 hPa | 0 mm | - | 160 W/m² | - |
| 1777902728 | 11.67° C | 87% | 1018.5 hPa | 0 mm | - | 117 W/m² | - |
| 1777901821 | 11.67° C | 87% | 1018.2 hPa | 0 mm | - | 41 W/m² | - |
| 1777901518 | 11.67° C | 84% | 1018.5 hPa | 0 mm | - | 27 W/m² | - |
| 1777901215 | 11.67° C | 87% | 1018.8 hPa | 0 mm | - | 24 W/m² | - |
| 1777900913 | 12.22° C | 87% | 1018 hPa | 0 mm | - | 34 W/m² | - |
| 1777900610 | 12.22° C | 83% | 1018.3 hPa | 0 mm | - | 58 W/m² | - |
| 1777900307 | 12.22° C | 82% | 1018.5 hPa | 0 mm | - | 108 W/m² | - |
| 1777900003 | 12.22° C | 80% | 1018.5 hPa | 0 mm | - | 105 W/m² | - |
* Rain latest hour (hover to see other rain measurements)
** Current wind speed in m/s (hover to see current wind gust speed)